Location: OLV Amersfoort
(52.1552°N, 5.3872°E)
Time: 13:14:53
(UTC+01:00)

ISS - Visible Passes

Search period start: 21 November 2017 00:00
Search period end: 01 December 2017 00:00
Orbit: 402 x 407 km, 51.6° (Epoch: 21 November)

Date Brightness Start Highest point End Pass type
(mag) Time Alt. Az. Time Alt. Az. Time Alt. Az.
29 Nov -1.7 18:58:56 10° SSW 19:00:27 20° S 19:00:27 20° S visible
30 Nov -1.9 18:07:14 10° S 18:09:33 18° SE 18:10:17 17° SE visible
30 Nov -0.8 19:42:20 10° WSW 19:42:56 14° WSW 19:42:56 14° WSW visible
